Regional Weather Roundup
Issued by NWS

Home | Current Version | Previous Version | Text Only | Print | Product List | Glossary Off
Versions: 1 2 3 4 5 6 7 8 9 10 11 12 13 14 15 16 17 18 19 20 21 22 23 24 25 26 27 28 29 30 31 32 33 34 35 36 37 38 39 40 41 42 43 44 45 46 47 48 49 50

000
ASUS43 KOAX 030910
RWRNE

WEATHER ROUNDUP FOR NEBRASKA
NATIONAL WEATHER SERVICE OMAHA NE
400 AM CDT WED JUN 03 2015

NOTES: SATELLITE DATA IS BEING USED TO AUGMENT CLOUD COVER ABOVE
       12000 FEET.
       "FAIR" INDICATES FEW OR NO CLOUDS BELOW 12,000 FEET WITH NO
       SIGNIFICANT WEATHER AND/OR OBSTRUCTIONS TO VISIBILITY.

  * THESE STATIONS DO NOT REPORT WEATHER SUCH AS RAIN...SNOW OR FOG.

NEZ001>004-019>022-054>056-031000-
NEBRASKA PANHANDLE

CITY           SKY/WX    TMP DP  RH WIND       PRES   REMARKS
SCOTTSBLUFF    CLEAR     57  51  80 NE10      29.93R
ALLIANCE       PTCLDY    57  53  86 NE15      29.92R
CHADRON        CLEAR     51  49  92 W3        29.94S
KIMBALL          N/A    N/A N/A N/A MISG        N/A
SIDNEY         PTCLDY    59  55  87 N15       29.91R
$$

NEZ057>060-069>072-079>082-031000-
SOUTHWEST NEBRASKA

CITY           SKY/WX    TMP DP  RH WIND       PRES   REMARKS
NORTH PLATTE   TSTM      59  55  87 N8        29.94R FOG
IMPERIAL       MOCLDY    62  55  77 NE22G31   29.83R
LEXINGTON      TSTM      61  58  89 NW20      29.94R
MCCOOK         CLEAR     68  63  84 NE15G23   29.80R
OGALLALA       MOCLDY    62  56  83 E16G25    29.85F
$$

NEZ005>010-023>029-035>040-094-031000-
NORTH CENTRAL NEBRASKA

CITY           SKY/WX    TMP DP  RH WIND       PRES   REMARKS
VALENTINE      CLOUDY    61  53  75 N10       29.86F
AINSWORTH      CLOUDY    62  58  87 NW3       29.86F
BROKEN BOW     TSTM      60  57  89 NW7       29.91  FOG
O`NEILL        CLOUDY    62  60  94 NW8       29.85R
ORD            CLOUDY    62  56  80 W10       29.84R
THEDFORD       CLOUDY    61  58  88 E3        29.90R
$$

NEZ041-046>049-061>064-073>077-083>087-031000-
SOUTH CENTRAL NEBRASKA

CITY           SKY/WX    TMP DP  RH WIND       PRES   REMARKS
GRAND ISLAND   CLOUDY    61  59  93 E7        29.87F THUNDER
AURORA         CLOUDY    62  61  97 SE7       29.87F
HASTINGS       CLOUDY    61  58  90 E12       29.86F
HEBRON         CLOUDY    67  56  69 N17G40    29.89R
HOLDREGE       CLOUDY    60  56  86 E15       29.84F
KEARNEY *      CLOUDY    59  55  88 E13       29.84F
YORK           LGT RAIN  61  59  94 E13       29.87F
$$

NEZ011>018-030>034-042>045-031000-
NORTHEAST NEBRASKA

CITY           SKY/WX    TMP DP  RH WIND       PRES   REMARKS
NORFOLK        RAIN      63  60  90 SW5       29.87F FOG
ALBION         CLOUDY    62  58  89 NE18G28   29.74F
BLAIR          CLOUDY    66  58  75 W28G37    29.95R
COLUMBUS *     CLOUDY    63  55  77 NE12G22   29.87F
FREMONT        CLOUDY    65  61  87 NW8       29.92R
TEKAMAH        LGT RAIN  66  61  84 SW14G28   29.89R
WAYNE          TSTM      64  62  95 W7        29.89S
$$

NEZ050>053-065>068-078-088>093-031000-
SOUTHEAST NEBRASKA

CITY           SKY/WX    TMP DP  RH WIND       PRES   REMARKS
LINCOLN        TSTM      62  61  96 N13G26    29.92R FOG
OMAHA EPPLEY   CLOUDY    65  58  78 SE13      29.86F
BEATRICE       MOCLDY    66  64  91 SE9       29.84F
FALLS CITY     CLEAR     64  59  83 SE9       29.87F
NEBRASKA CITY  PTCLDY    64  58  82 S12       29.86F
PLATTSMOUTH    MOCLDY    63  58  82 SE14      29.86S
$$

NEZ044-045-051>053-067-031000-
OMAHA AREA

CITY           SKY/WX    TMP DP  RH WIND       PRES   REMARKS
OMAHA EPPLEY   CLOUDY    65  58  78 SE13      29.86F
BLAIR          CLOUDY    66  58  75 W28G37    29.95R
FREMONT        CLOUDY    65  61  87 NW8       29.92R
MILLARD        MOCLDY    66  60  81 SW12G28   29.89R
OFFUTT AFB     MOCLDY    64  59  82 SE9       29.86S
PLATTSMOUTH    MOCLDY    63  58  82 SE14      29.86S
WAHOO          RAIN      66  62  88 NW14G20   29.90R
$$



USA.gov is the U.S. government's official web portal to all federal, state and local government web resources and services.